Location: Unspecified
(51.5147°N, 7.4673°E)
Time: 19:22:31
(UTC+01:00)

S-56A Canister/Altair - All Passes

Search period start: 18 February 2026 00:00
Search period end: 28 February 2026 00:00
Orbit: 632 x 2485 km, 38.9° (Epoch: 18 February)

Date Brightness Start Highest point End Pass type
(mag) Time Alt. Az. Time Alt. Az. Time Alt. Az.
18 Feb - 01:43:27 10° SW 01:49:26 33° S 01:57:54 10° ESE visible
18 Feb - 03:45:47 10° WSW 03:52:52 33° SSW 04:02:42 10° SE visible
18 Feb - 05:49:56 10° WSW 05:56:33 20° SSW 06:04:40 10° S visible
18 Feb - 23:09:14 10° S 23:12:19 15° SE 23:15:55 10° ESE night (unlit)
19 Feb - 01:09:06 10° SW 01:14:35 31° SSE 01:22:12 10° ESE visible
19 Feb - 03:11:11 10° WSW 03:17:48 32° S 03:27:05 10° SE visible
19 Feb - 05:14:57 10° WSW 05:21:26 21° SSW 05:29:33 10° SSE visible
19 Feb - 22:36:00 10° SSE 22:37:43 11° SE 22:39:35 10° SE night (unlit)
20 Feb - 00:34:48 10° SW 00:39:47 28° SSE 00:46:33 10° ESE night (unlit)
20 Feb - 02:36:39 10° WSW 02:42:50 32° S 02:51:28 10° SE visible
20 Feb - 04:40:04 10° WSW 04:46:20 22° SSW 04:54:20 10° SSE visible
21 Feb - 00:00:33 10° SW 00:05:03 24° SSE 00:10:56 10° ESE night (unlit)
21 Feb - 02:02:10 10° WSW 02:07:54 31° S 02:15:53 10° SE visible
21 Feb - 04:05:17 10° WSW 04:11:17 22° SSW 04:19:03 10° SSE visible
21 Feb - 23:26:22 10° SSW 23:30:22 21° SSE 23:35:22 10° ESE night (unlit)
22 Feb - 01:27:44 10° WSW 01:33:01 29° S 01:40:20 10° SE visible
22 Feb - 03:30:35 10° WSW 03:36:17 23° SSW 03:43:44 10° SSE visible
22 Feb - 22:52:16 10° SSW 22:55:43 18° SSE 22:59:50 10° ESE night (unlit)
23 Feb - 00:53:19 10° SW 00:58:13 28° S 01:04:49 10° ESE night (unlit)
23 Feb - 02:55:57 10° WSW 03:01:20 23° SSW 03:08:23 10° SSE visible
23 Feb - 05:02:58 10° SW 05:04:35 10° SSW 05:06:17 10° SSW visible
23 Feb - 22:18:18 10° S 22:21:05 15° SSE 22:24:16 10° ESE night (unlit)
24 Feb - 00:18:56 10° SW 00:23:27 26° S 00:29:22 10° ESE night (unlit)
24 Feb - 02:21:23 10° WSW 02:26:25 23° SSW 02:33:03 10° SSE visible
24 Feb - 04:27:11 10° SW 04:29:37 11° SSW 04:32:16 10° SSW visible
24 Feb - 21:44:32 10° S 21:46:29 12° SSE 21:48:35 10° SE night (unlit)
24 Feb - 23:44:36 10° SW 23:48:44 24° S 23:53:59 10° ESE night (unlit)
25 Feb - 01:46:51 10° WSW 01:51:34 23° S 01:57:43 10° SE night (unlit)
25 Feb - 03:51:54 10° SW 03:54:41 12° SSW 03:57:47 10° S visible
25 Feb - 23:10:16 10° SW 23:14:02 22° S 23:18:40 10° ESE night (unlit)
26 Feb - 01:12:21 10° WSW 01:16:45 22° S 01:22:25 10° SE night (unlit)
26 Feb - 03:16:52 10° SW 03:19:46 13° SSW 03:23:04 10° S visible
26 Feb - 22:35:58 10° SW 22:39:23 20° SSE 22:43:24 10° ESE night (unlit)
27 Feb - 00:37:53 10° SW 00:41:59 22° S 00:47:10 10° SE night (unlit)
27 Feb - 02:41:59 10° SW 02:44:54 13° SSW 02:48:16 10° S night (unlit)
27 Feb - 22:01:41 10° SSW 22:04:45 18° SSE 22:08:12 10° SE night (unlit)
